Time,TemperatureF,DewpointF,PressureIn,WindDirection,WindDirectionDegrees,WindSpeedMPH,WindSpeedGustMPH,Humidity,HourlyPrecipIn,Conditions,Clouds,dailyrainin,SoftwareType,DateUTC
2013-05-04 00:02:00,48.0,41.9,30.42,SE,135,2.0,4.0,79,0.00,,,0.00,meteohub,2013-05-04 04:02:00,
2013-05-04 00:12:00,48.0,42.1,30.42,ESE,112,2.0,5.0,80,0.00,,,0.00,meteohub,2013-05-04 04:12:00,
2013-05-04 00:22:00,48.0,42.4,30.42,SE,135,2.0,5.0,81,0.00,,,0.00,meteohub,2013-05-04 04:22:00,
2013-05-04 00:32:00,48.0,42.8,30.42,SE,135,2.0,4.0,82,0.00,,,0.00,meteohub,2013-05-04 04:32:00,
2013-05-04 00:42:00,48.0,43.2,30.42,ESE,112,1.0,5.0,83,0.00,,,0.00,meteohub,2013-05-04 04:42:00,
2013-05-04 00:52:00,48.0,43.3,30.41,ESE,112,1.0,5.0,84,0.00,,,0.00,meteohub,2013-05-04 04:52:00,
2013-05-04 01:02:00,48.0,43.3,30.41,SE,135,2.0,4.0,84,0.00,,,0.00,meteohub,2013-05-04 05:02:00,
2013-05-04 01:12:00,48.0,43.3,30.41,SE,135,1.0,3.0,84,0.00,,,0.00,meteohub,2013-05-04 05:12:00,
2013-05-04 01:22:00,48.0,43.3,30.40,ESE,112,2.0,3.0,84,0.00,,,0.00,meteohub,2013-05-04 05:22:00,
2013-05-04 01:32:00,48.0,43.3,30.40,East,90,1.0,3.0,84,0.00,,,0.00,meteohub,2013-05-04 05:32:00,
2013-05-04 01:42:00,48.0,43.3,30.40,East,90,1.0,2.0,84,0.00,,,0.00,meteohub,2013-05-04 05:42:00,
2013-05-04 01:52:00,48.0,43.3,30.39,SE,135,2.0,2.0,84,0.00,,,0.00,meteohub,2013-05-04 05:52:00,
2013-05-04 02:02:00,48.0,43.3,30.38,East,90,1.0,3.0,84,0.00,,,0.00,meteohub,2013-05-04 06:02:00,
2013-05-04 02:12:00,48.0,43.7,30.38,NE,45,2.0,3.0,85,0.00,,,0.00,meteohub,2013-05-04 06:12:00,
2013-05-04 02:22:00,48.0,43.7,30.38,NE,45,2.0,4.0,85,0.00,,,0.00,meteohub,2013-05-04 06:22:00,
2013-05-04 02:32:00,48.0,44.1,30.37,SE,135,1.0,4.0,86,0.00,,,0.00,meteohub,2013-05-04 06:32:00,
2013-05-04 02:42:00,48.0,44.1,30.37,East,90,1.0,4.0,86,0.00,,,0.00,meteohub,2013-05-04 06:42:00,
2013-05-04 02:52:00,48.0,44.1,30.37,SE,135,2.0,4.0,86,0.00,,,0.00,meteohub,2013-05-04 06:52:00,
2013-05-04 03:02:00,48.9,45.1,30.36,ESE,112,2.0,4.0,87,0.00,,,0.00,meteohub,2013-05-04 07:02:00,
2013-05-04 03:12:00,48.9,45.5,30.36,East,90,2.0,6.0,88,0.00,,,0.00,meteohub,2013-05-04 07:12:00,
2013-05-04 03:22:00,48.9,45.5,30.36,NE,45,2.0,6.0,88,0.00,,,0.00,meteohub,2013-05-04 07:22:00,
2013-05-04 03:32:00,48.9,45.9,30.36,SE,135,1.0,2.0,89,0.00,,,0.00,meteohub,2013-05-04 07:32:00,
2013-05-04 03:42:00,48.9,45.9,30.36,SE,135,0.0,3.0,89,0.00,,,0.00,meteohub,2013-05-04 07:42:00,
2013-05-04 03:52:00,48.9,45.9,30.36,East,90,1.0,2.0,89,0.00,,,0.00,meteohub,2013-05-04 07:52:00,
2013-05-04 04:02:00,48.9,46.0,30.36,ESE,112,1.0,2.0,90,0.00,,,0.00,meteohub,2013-05-04 08:02:00,
2013-05-04 04:12:00,48.9,46.0,30.36,ESE,112,0.0,4.0,90,0.00,,,0.00,meteohub,2013-05-04 08:12:00,
2013-05-04 04:22:00,48.9,46.0,30.36,NNW,337,1.0,2.0,90,0.00,,,0.00,meteohub,2013-05-04 08:22:00,
2013-05-04 04:32:00,48.9,46.0,30.36,NE,45,1.0,4.0,90,0.00,,,0.00,meteohub,2013-05-04 08:32:00,
2013-05-04 04:42:00,48.9,45.9,30.36,SE,135,0.0,4.0,89,0.00,,,0.00,meteohub,2013-05-04 08:42:00,
2013-05-04 04:52:00,48.9,46.0,30.36,East,90,2.0,4.0,90,0.00,,,0.00,meteohub,2013-05-04 08:52:00,
2013-05-04 05:02:00,48.9,46.0,30.36,East,90,0.0,4.0,90,0.00,,,0.00,meteohub,2013-05-04 09:02:00,
2013-05-04 05:12:00,48.9,46.4,30.36,ENE,67,2.0,4.0,91,0.00,,,0.00,meteohub,2013-05-04 09:12:00,
2013-05-04 05:22:00,48.9,46.4,30.36,ESE,112,2.0,2.0,91,0.00,,,0.00,meteohub,2013-05-04 09:22:00,
2013-05-04 05:32:00,48.9,46.0,30.36,SE,135,0.0,2.0,90,0.00,,,0.00,meteohub,2013-05-04 09:32:00,
2013-05-04 05:42:00,48.9,46.0,30.37,East,90,1.0,2.0,90,0.00,,,0.00,meteohub,2013-05-04 09:42:00,
2013-05-04 05:52:00,48.9,46.0,30.37,ESE,112,1.0,4.0,90,0.00,,,0.00,meteohub,2013-05-04 09:52:00,
2013-05-04 06:02:00,48.9,46.0,30.37,East,90,0.0,4.0,90,0.00,,,0.00,meteohub,2013-05-04 10:02:00,
2013-05-04 06:12:00,48.9,46.0,30.37,East,90,1.0,3.0,90,0.00,,,0.00,meteohub,2013-05-04 10:12:00,
2013-05-04 06:22:00,48.9,45.9,30.38,East,90,2.0,4.0,89,0.00,,,0.00,meteohub,2013-05-04 10:22:00,
2013-05-04 06:32:00,48.9,45.9,30.38,NE,45,2.0,4.0,89,0.00,,,0.00,meteohub,2013-05-04 10:32:00,
2013-05-04 06:42:00,48.9,45.5,30.38,NE,45,0.0,4.0,88,0.00,,,0.00,meteohub,2013-05-04 10:42:00,
2013-05-04 06:52:00,48.9,45.9,30.38,NE,45,0.0,2.0,89,0.00,,,0.00,meteohub,2013-05-04 10:52:00,
2013-05-04 07:02:00,48.9,45.5,30.38,East,90,2.0,2.0,88,0.00,,,0.00,meteohub,2013-05-04 11:02:00,
2013-05-04 07:12:00,48.9,45.1,30.38,South,180,0.0,4.0,87,0.00,,,0.00,meteohub,2013-05-04 11:12:00,
2013-05-04 07:22:00,48.9,45.1,30.38,SE,135,4.0,5.0,87,0.00,,,0.00,meteohub,2013-05-04 11:22:00,
2013-05-04 07:32:00,48.9,45.1,30.38,NE,45,0.0,4.0,87,0.00,,,0.00,meteohub,2013-05-04 11:32:00,
2013-05-04 07:42:00,48.9,45.1,30.38,NE,45,1.0,4.0,87,0.00,,,0.00,meteohub,2013-05-04 11:42:00,
2013-05-04 07:52:00,50.0,46.0,30.38,NE,45,2.0,2.0,86,0.00,,,0.00,meteohub,2013-05-04 11:52:00,
2013-05-04 08:02:00,51.1,46.4,30.39,NE,45,0.0,2.0,84,0.00,,,0.00,meteohub,2013-05-04 12:02:00,
2013-05-04 08:13:00,51.1,45.5,30.40,North,0,1.0,3.0,81,0.00,,,0.00,meteohub,2013-05-04 12:13:00,
2013-05-04 08:22:00,52.0,45.7,30.40,NW,315,2.0,3.0,79,0.00,,,0.00,meteohub,2013-05-04 12:22:00,
2013-05-04 08:32:00,53.1,45.3,30.40,North,0,1.0,4.0,75,0.00,,,0.00,meteohub,2013-05-04 12:32:00,
2013-05-04 08:42:00,53.1,44.2,30.41,SE,135,2.0,6.0,72,0.00,,,0.00,meteohub,2013-05-04 12:42:00,
2013-05-04 08:52:00,53.1,44.2,30.41,NE,45,1.0,6.0,72,0.00,,,0.00,meteohub,2013-05-04 12:52:00,
2013-05-04 09:02:00,53.1,44.6,30.40,NE,45,2.0,6.0,73,0.00,,,0.00,meteohub,2013-05-04 13:02:00,
2013-05-04 09:12:00,53.1,43.9,30.40,NE,45,2.0,6.0,71,0.00,,,0.00,meteohub,2013-05-04 13:12:00,
2013-05-04 09:22:00,53.1,44.2,30.40,NNW,337,2.0,4.0,72,0.00,,,0.00,meteohub,2013-05-04 13:22:00,
2013-05-04 09:32:00,54.0,44.8,30.40,East,90,2.0,4.0,71,0.00,,,0.00,meteohub,2013-05-04 13:32:00,
2013-05-04 09:42:00,55.0,43.5,30.40,East,90,2.0,4.0,65,0.00,,,0.00,meteohub,2013-05-04 13:42:00,
2013-05-04 09:52:00,55.0,43.5,30.40,SE,135,4.0,6.0,65,0.00,,,0.00,meteohub,2013-05-04 13:52:00,
2013-05-04 10:02:00,55.9,43.5,30.41,North,0,2.0,5.0,63,0.00,,,0.00,meteohub,2013-05-04 14:02:00,
2013-05-04 10:12:00,57.0,43.7,30.41,SE,135,0.0,5.0,61,0.00,,,0.00,meteohub,2013-05-04 14:12:00,
2013-05-04 10:22:00,57.0,43.3,30.42,SE,135,1.0,6.0,60,0.00,,,0.00,meteohub,2013-05-04 14:22:00,
2013-05-04 10:32:00,57.9,44.1,30.42,SE,135,2.0,6.0,60,0.00,,,0.00,meteohub,2013-05-04 14:32:00,
2013-05-04 10:42:00,59.0,43.3,30.42,East,90,5.0,5.0,56,0.00,,,0.00,meteohub,2013-05-04 14:42:00,
2013-05-04 10:52:00,59.0,41.9,30.42,SE,135,4.0,7.0,53,0.00,,,0.00,meteohub,2013-05-04 14:52:00,
2013-05-04 11:02:00,60.1,40.8,30.42,ESE,112,4.0,6.0,49,0.00,,,0.00,meteohub,2013-05-04 15:02:00,
2013-05-04 11:12:00,60.1,39.7,30.42,ESE,112,2.0,7.0,47,0.00,,,0.00,meteohub,2013-05-04 15:12:00,
2013-05-04 11:22:00,61.0,40.1,30.42,North,0,1.0,6.0,46,0.00,,,0.00,meteohub,2013-05-04 15:22:00,
2013-05-04 11:32:00,61.0,38.8,30.42,SE,135,7.0,7.0,44,0.00,,,0.00,meteohub,2013-05-04 15:32:00,
2013-05-04 11:42:00,61.0,38.8,30.42,SE,135,2.0,7.0,44,0.00,,,0.00,meteohub,2013-05-04 15:42:00,
2013-05-04 11:52:00,61.0,37.8,30.42,SE,135,1.0,8.0,42,0.00,,,0.00,meteohub,2013-05-04 15:52:00,
2013-05-04 12:02:00,62.1,38.7,30.41,SE,135,3.0,8.0,42,0.00,,,0.00,meteohub,2013-05-04 16:02:00,
2013-05-04 12:12:00,63.0,41.4,30.41,East,90,1.0,7.0,45,0.00,,,0.00,meteohub,2013-05-04 16:12:00,
2013-05-04 12:22:00,64.0,41.7,30.40,NE,45,0.0,7.0,44,0.00,,,0.00,meteohub,2013-05-04 16:22:00,
2013-05-04 12:32:00,63.0,40.1,30.40,NE,45,2.0,7.0,43,0.00,,,0.00,meteohub,2013-05-04 16:32:00,
2013-05-04 12:42:00,64.0,41.7,30.40,ESE,112,2.0,6.0,44,0.00,,,0.00,meteohub,2013-05-04 16:42:00,
2013-05-04 12:52:00,64.9,40.6,30.40,SE,135,0.0,7.0,41,0.00,,,0.00,meteohub,2013-05-04 16:52:00,
2013-05-04 13:02:00,66.0,41.0,30.40,SE,135,4.0,7.0,40,0.00,,,0.00,meteohub,2013-05-04 17:02:00,
2013-05-04 13:12:00,64.9,41.4,30.40,SE,135,2.0,6.0,42,0.00,,,0.00,meteohub,2013-05-04 17:12:00,
2013-05-04 13:22:00,64.9,39.4,30.40,SE,135,4.0,5.0,39,0.00,,,0.00,meteohub,2013-05-04 17:22:00,
2013-05-04 13:32:00,64.0,41.2,30.40,SE,135,1.0,7.0,43,0.00,,,0.00,meteohub,2013-05-04 17:32:00,
2013-05-04 13:42:00,66.0,41.7,30.40,South,180,1.0,6.0,41,0.00,,,0.00,meteohub,2013-05-04 17:42:00,
2013-05-04 13:52:00,66.0,41.7,30.40,East,90,4.0,6.0,41,0.00,,,0.00,meteohub,2013-05-04 17:52:00,
2013-05-04 14:02:00,66.0,41.7,30.40,East,90,1.0,9.0,41,0.00,,,0.00,meteohub,2013-05-04 18:02:00,
2013-05-04 14:12:00,66.0,42.3,30.40,South,180,1.0,7.0,42,0.00,,,0.00,meteohub,2013-05-04 18:12:00,
2013-05-04 14:22:00,64.9,41.4,30.40,SE,135,2.0,7.0,42,0.00,,,0.00,meteohub,2013-05-04 18:22:00,
2013-05-04 14:32:00,64.9,42.4,30.39,East,90,5.0,7.0,44,0.00,,,0.00,meteohub,2013-05-04 18:32:00,
2013-05-04 14:42:00,66.0,42.8,30.39,SE,135,1.0,7.0,43,0.00,,,0.00,meteohub,2013-05-04 18:42:00,
2013-05-04 14:52:00,68.0,42.8,30.38,SE,135,2.0,6.0,40,0.00,,,0.00,meteohub,2013-05-04 18:52:00,
2013-05-04 15:02:00,66.0,42.3,30.38,SE,135,2.0,7.0,42,0.00,,,0.00,meteohub,2013-05-04 19:02:00,
2013-05-04 15:12:00,66.9,43.2,30.38,ESE,112,2.0,7.0,42,0.00,,,0.00,meteohub,2013-05-04 19:12:00,
2013-05-04 15:22:00,66.9,42.4,30.38,ESE,112,7.0,7.0,41,0.00,,,0.00,meteohub,2013-05-04 19:22:00,
2013-05-04 15:32:00,68.0,42.8,30.38,East,90,2.0,8.0,40,0.00,,,0.00,meteohub,2013-05-04 19:32:00,
2013-05-04 15:42:00,68.0,42.1,30.38,SE,135,4.0,8.0,39,0.00,,,0.00,meteohub,2013-05-04 19:42:00,
2013-05-04 15:52:00,68.0,41.4,30.37,SE,135,2.0,7.0,38,0.00,,,0.00,meteohub,2013-05-04 19:52:00,
2013-05-04 16:02:00,66.9,40.5,30.37,SE,135,3.0,8.0,38,0.00,,,0.00,meteohub,2013-05-04 20:02:00,
2013-05-04 16:12:00,68.0,41.4,30.37,ESE,112,4.0,7.0,38,0.00,,,0.00,meteohub,2013-05-04 20:12:00,
2013-05-04 16:22:00,66.9,41.2,30.37,ESE,112,2.0,8.0,39,0.00,,,0.00,meteohub,2013-05-04 20:22:00,
2013-05-04 16:32:00,66.9,41.2,30.37,ESE,112,4.0,9.0,39,0.00,,,0.00,meteohub,2013-05-04 20:32:00,
2013-05-04 16:42:00,66.9,41.9,30.36,SE,135,2.0,9.0,40,0.00,,,0.00,meteohub,2013-05-04 20:42:00,
2013-05-04 16:52:00,66.9,40.5,30.36,ESE,112,4.0,6.0,38,0.00,,,0.00,meteohub,2013-05-04 20:52:00,
2013-05-04 17:02:00,66.0,41.7,30.36,SE,135,1.0,9.0,41,0.00,,,0.00,meteohub,2013-05-04 21:02:00,
2013-05-04 17:12:00,66.0,41.7,30.35,SE,135,2.0,8.0,41,0.00,,,0.00,meteohub,2013-05-04 21:12:00,
2013-05-04 17:22:00,66.0,41.7,30.35,ESE,112,2.0,9.0,41,0.00,,,0.00,meteohub,2013-05-04 21:22:00,
2013-05-04 17:32:00,66.0,42.3,30.35,East,90,2.0,8.0,42,0.00,,,0.00,meteohub,2013-05-04 21:32:00,
2013-05-04 17:42:00,64.9,41.4,30.34,SE,135,6.0,8.0,42,0.00,,,0.00,meteohub,2013-05-04 21:42:00,
2013-05-04 17:52:00,64.9,41.9,30.34,SE,135,1.0,9.0,43,0.00,,,0.00,meteohub,2013-05-04 21:52:00,
2013-05-04 18:02:00,66.0,41.7,30.34,SE,135,2.0,9.0,41,0.00,,,0.00,meteohub,2013-05-04 22:02:00,
2013-05-04 18:12:00,66.0,41.7,30.34,SE,135,1.0,7.0,41,0.00,,,0.00,meteohub,2013-05-04 22:12:00,
2013-05-04 18:22:00,66.0,41.7,30.34,SE,135,4.0,7.0,41,0.00,,,0.00,meteohub,2013-05-04 22:22:00,
2013-05-04 18:32:00,64.9,40.6,30.34,SE,135,1.0,7.0,41,0.00,,,0.00,meteohub,2013-05-04 22:32:00,
2013-05-04 18:42:00,64.9,40.6,30.34,SE,135,2.0,7.0,41,0.00,,,0.00,meteohub,2013-05-04 22:42:00,
2013-05-04 18:52:00,64.9,41.4,30.34,SE,135,1.0,6.0,42,0.00,,,0.00,meteohub,2013-05-04 22:52:00,
2013-05-04 19:02:00,64.9,41.9,30.34,SE,135,1.0,6.0,43,0.00,,,0.00,meteohub,2013-05-04 23:02:00,
2013-05-04 19:12:00,64.0,40.5,30.34,East,90,1.0,7.0,42,0.00,,,0.00,meteohub,2013-05-04 23:12:00,
2013-05-04 19:22:00,63.0,40.1,30.33,SE,135,3.0,10.0,43,0.00,,,0.00,meteohub,2013-05-04 23:22:00,
2013-05-04 19:32:00,62.1,39.9,30.33,SE,135,2.0,6.0,44,0.00,,,0.00,meteohub,2013-05-04 23:32:00,
2013-05-04 19:42:00,62.1,41.0,30.33,ESE,112,4.0,7.0,46,0.00,,,0.00,meteohub,2013-05-04 23:42:00,
2013-05-04 19:52:00,61.0,40.6,30.33,SE,135,6.0,7.0,47,0.00,,,0.00,meteohub,2013-05-04 23:52:00,
2013-05-04 20:02:00,60.1,40.3,30.33,ESE,112,2.0,7.0,48,0.00,,,0.00,meteohub,2013-05-05 00:02:00,
2013-05-04 20:12:00,60.1,40.3,30.34,SE,135,4.0,6.0,48,0.00,,,0.00,meteohub,2013-05-05 00:12:00,
2013-05-04 20:22:00,59.0,39.9,30.34,SE,135,2.0,8.0,49,0.00,,,0.00,meteohub,2013-05-05 00:22:00,
2013-05-04 20:32:00,57.9,38.8,30.34,SE,135,4.0,6.0,49,0.00,,,0.00,meteohub,2013-05-05 00:32:00,
2013-05-04 20:42:00,57.9,39.9,30.34,ESE,112,2.0,8.0,51,0.00,,,0.00,meteohub,2013-05-05 00:42:00,
2013-05-04 20:52:00,57.9,39.4,30.34,SE,135,2.0,4.0,50,0.00,,,0.00,meteohub,2013-05-05 00:52:00,
2013-05-04 21:02:00,57.0,38.5,30.34,ESE,112,2.0,5.0,50,0.00,,,0.00,meteohub,2013-05-05 01:02:00,
2013-05-04 21:12:00,57.0,38.5,30.34,SE,135,2.0,6.0,50,0.00,,,0.00,meteohub,2013-05-05 01:12:00,
2013-05-04 21:22:00,57.0,38.5,30.34,ESE,112,2.0,4.0,50,0.00,,,0.00,meteohub,2013-05-05 01:22:00,
2013-05-04 21:32:00,55.9,38.5,30.34,ESE,112,1.0,4.0,52,0.00,,,0.00,meteohub,2013-05-05 01:32:00,
2013-05-04 21:42:00,55.0,38.7,30.34,ESE,112,1.0,2.0,54,0.00,,,0.00,meteohub,2013-05-05 01:42:00,
2013-05-04 21:52:00,55.0,38.7,30.34,ESE,112,2.0,2.0,54,0.00,,,0.00,meteohub,2013-05-05 01:52:00,
2013-05-04 22:02:00,55.0,38.7,30.34,ESE,112,1.0,2.0,54,0.00,,,0.00,meteohub,2013-05-05 02:02:00,
2013-05-04 22:12:00,55.0,39.6,30.34,ESE,112,2.0,2.0,56,0.00,,,0.00,meteohub,2013-05-05 02:12:00,
2013-05-04 22:22:00,54.0,39.6,30.34,ESE,112,1.0,2.0,58,0.00,,,0.00,meteohub,2013-05-05 02:22:00,
2013-05-04 22:32:00,54.0,40.8,30.34,SE,135,2.0,2.0,61,0.00,,,0.00,meteohub,2013-05-05 02:32:00,
2013-05-04 22:42:00,53.1,40.5,30.34,SE,135,1.0,3.0,62,0.00,,,0.00,meteohub,2013-05-05 02:42:00,
2013-05-04 22:52:00,53.1,40.8,30.34,SE,135,1.0,4.0,63,0.00,,,0.00,meteohub,2013-05-05 02:52:00,
2013-05-04 23:02:00,53.1,41.2,30.34,SE,135,1.0,2.0,64,0.00,,,0.00,meteohub,2013-05-05 03:02:00,
2013-05-04 23:12:00,52.0,40.6,30.33,ESE,112,2.0,2.0,65,0.00,,,0.00,meteohub,2013-05-05 03:12:00,
2013-05-04 23:22:00,52.0,41.0,30.33,ESE,112,1.0,2.0,66,0.00,,,0.00,meteohub,2013-05-05 03:22:00,
2013-05-04 23:32:00,52.0,41.0,30.33,SE,135,1.0,3.0,66,0.00,,,0.00,meteohub,2013-05-05 03:32:00,
2013-05-04 23:42:00,52.0,40.6,30.33,SE,135,2.0,4.0,65,0.00,,,0.00,meteohub,2013-05-05 03:42:00,
2013-05-04 23:52:00,51.1,39.7,30.32,SE,135,1.0,3.0,65,0.00,,,0.00,meteohub,2013-05-05 03:52:00,